This is the latest recevied weather packets stored in our database for station/object KC1OHT-13. If no packets are shown the sender has not sent any weather packets the latest 1 day(s).
| Time | Temp. | Humidity | Pressure | Rain* | Wind** | Luminosity | Snow |
|---|---|---|---|---|---|---|---|
| 1778043444 | 16.11° C | 73% | 1008.4 hPa | 0 mm | 0.89 m/s, 232° | 0 W/m² | - |
| 1778043140 | 15.56° C | 73% | 1008.4 hPa | 0 mm | 1.79 m/s, 233° | 0 W/m² | - |
| 1778042838 | 16.11° C | 72% | 1008.3 hPa | 0 mm | 1.79 m/s, 124° | 0 W/m² | - |
| 1778042535 | 16.11° C | 72% | 1008.4 hPa | 0 mm | 1.34 m/s, 89° | 0 W/m² | - |
| 1778042233 | 15.56° C | 72% | 1008.2 hPa | 0 mm | 0.45 m/s, 149° | 0 W/m² | - |
| 1778041930 | 15.56° C | 73% | 1008.4 hPa | 0 mm | 0.89 m/s, 175° | 0 W/m² | - |
| 1778041629 | 15.56° C | 72% | 1008.3 hPa | 0 mm | 2.68 m/s, 174° | 0 W/m² | - |
| 1778041327 | 16.11° C | 71% | 1008.4 hPa | 0 mm | 1.34 m/s, 79° | 0 W/m² | - |
| 1778041025 | 16.11° C | 71% | 1008.4 hPa | 0 mm | 0.45 m/s, 355° | 0 W/m² | - |
| 1778040721 | 15.56° C | 72% | 1008.3 hPa | 0 mm | 0.89 m/s, 71° | 0 W/m² | - |
| 1778040419 | 15.56° C | 72% | 1008.3 hPa | 0 mm | 0.89 m/s, 128° | 0 W/m² | - |
| 1778040116 | 15.56° C | 72% | 1008.4 hPa | 0 mm | 1.34 m/s, 128° | 0 W/m² | - |
| 1778039813 | 16.11° C | 71% | 1008.3 hPa | 0 mm | 1.79 m/s, 189° | 0 W/m² | - |
| 1778039509 | 16.11° C | 71% | 1008.2 hPa | 0 mm | 1.34 m/s, 144° | 0 W/m² | - |
| 1778039206 | 16.67° C | 69% | 1008.3 hPa | 0 mm | 1.79 m/s, 75° | 0 W/m² | - |
| 1778038903 | 16.67° C | 68% | 1008.3 hPa | 0 mm | 0.45 m/s, 63° | 0 W/m² | - |
| 1778038601 | 17.22° C | 67% | 1008.3 hPa | 0 mm | 0.89 m/s, 105° | 0 W/m² | - |
| 1778038297 | 17.22° C | 66% | 1008.1 hPa | 0 mm | 0.89 m/s, 19° | 0 W/m² | - |
| 1778037995 | 17.22° C | 66% | 1008.1 hPa | 0 mm | 0.89 m/s, 182° | 0 W/m² | - |
| 1778037691 | 17.22° C | 66% | 1008.3 hPa | 0 mm | 0 m/s | 0 W/m² | - |
| 1778037388 | 17.22° C | 67% | 1008.2 hPa | 0 mm | 0.45 m/s, 185° | 0 W/m² | - |
| 1778037085 | 17.22° C | 67% | 1008.1 hPa | 0 mm | 0.45 m/s, 151° | 0 W/m² | - |
| 1778036784 | 17.22° C | 67% | 1008.3 hPa | 0 mm | 1.34 m/s, 192° | 0 W/m² | - |
| 1778036481 | 17.22° C | 66% | 1008.2 hPa | 0 mm | 1.34 m/s, 194° | 0 W/m² | - |
| 1778036178 | 17.22° C | 66% | 1008.2 hPa | 0 mm | 0.89 m/s, 121° | 0 W/m² | - |
* Rain latest hour (hover to see other rain measurements)
** Current wind speed in m/s (hover to see current wind gust speed)